Вернуться в каталог

STARLINK-11227

АктивенСвязьVLEO
NORAD 60303·PAYLOAD·🇺🇸 United States

Запущен Jul 28, 2024 с Vandenberg Space Force Base

Loading…

Ближайшие Пролёты (ближайшие 24 часа)

TLE

СвежийSource: CelesTrak SupGP

Эпоха: Sep 14, 2026, 14:41 UTC

1 60303C 24133C   26257.61229167  .00073001  00000+0  60129-3 0  2579
2 60303  53.1563 295.0071 0001245  70.4763 344.0154 15.69674182    11

Отслеживайте STARLINK-11227 в реальном времени с AllMySat

Download on the App Store